Location: Newark
(54.1978°N, 18.3264°E)
Time: 05:59:49
(UTC+00:00)

OTV 5 (USA 277) - Pass Details

Date: 28 August 2019
Orbit: 295 x 339 km, 54.5° (Epoch: 08 September)

Event Time Altitude Azimuth Distance (km) Brightness Sun altitude
Rises 20:28:06 0° 268° (W) 1,996 ? -19.7°
Reaches altitude 10° 20:30:03 10° 269° (W) 1,168 ? -19.9°
Enters shadow 20:31:18 25° 272° (W) 657 ? -20.0°
